GFSGBSN_2pvu_pres_114.txt.gz
Presure
170 176 182 179 169 168 181 173 168 171 168 164 172 163 179 169 173 176 187 146 163 171 172 159 164 164 170 190 184 191 167 166 178 177 172 173 160 168 174 178 200 190 184 178 175 184 186
172 186 176 166 173 197 177 181 176 175 179 173 164 166 188 158 165 192 172 153 176 171 174 163 170 173 184 169 174 179 179 185 167 176 171 165 177 168 171 178 195 202 207 200 179 176 158
168 184 188 175 176 181 174 164 171 179 191 170 161 168 168 163 179 176 190 180 165 172 175 171 173 167 172 177 183 179 181 181 170 157 176 170 182 183 174 185 167 175 191 171 161 176 180
168 176 176 159 167 166 181 173 162 167 196 170 174 186 147 178 182 162 172 175 165 178 173 175 168 187 173 171 186 182 173 183 179 179 181 186 179 190 177 175 179 182 183 193 190 177 184
182 161 136 170 174 152 175 183 184 181 170 174 161 180 164 178 191 173 171 173 172 172 183 181 176 189 174 179 183 173 184 171 145 176 187 180 186 181 178 175 190 187 191 196 196 198 199
190 170 179 177 171 182 160 167 169 180 178 166 176 159 180 184 161 179 182 157 180 180 178 163 165 178 193 174 176 183 184 180 183 178 185 183 179 178 182 185 183 190 196 197 203 213 218
203 207 185 196 152 155 168 174 172 170 161 161 173 136 182 149 180 173 178 174 166 160 153 197 194 160 162 177 184 191 174 181 196 190 193 186 179 192 189 184 183 185 194 207 202 207 225
190 197 164 192 203 178 193 186 175 183 148 155 163 180 188 181 171 158 169 159 168 175 192 173 180 192 193 174 184 182 155 192 190 191 184 161 173 190 182 188 194 195 206 104 222 228 229
197 194 198 201 190 195 175 206 194 195 189 185 192 184 190 161 151 158 162 177 182 177 170 192 185 181 182 197 193 193 192 186 189 191 189 191 189 183 192 196 194 213 233 231 226 212 209
190 190 172 196 158 182 178 208 199 177 178 176 169 167 183 161 176 181 172 187 193 189 194 168 192 194 195 194 199 189 193 190 178 194 196 198 186 191 196 198 199 200 206 213 217 215 225
163 203 207 199 182 206 206 203 190 172 190 199 202 211 202 206 199 193 179 181 209 188 202 198 209 198 194 208 197 199 196 197 196 195 197 202 196 196 201 219 225 225 208 207 225 232 245
230 223 220 200 221 215 202 194 202 204 212 198 199 207 213 202 187 203 209 188 210 184 197 183 211 202 205 195 202 199 194 203 203 202 185 202 209 225 219 208 199 211 222 211 218 232 244
222 222 225 222 212 216 220 214 200 203 207 213 208 207 211 215 210 204 210 211 213 220 214 211 208 214 208 206 220 198 189 208 205 205 211 213 204 209 211 223 216 214 225 229 235 236 245
214 211 217 216 222 224 225 224 221 222 212 218 206 205 210 204 204 201 211 222 215 201 208 208 200 204 212 181 165 221 216 220 221 219 209 205 200 196 196 209 215 216 217 230 242 250 274
226 218 215 211 211 205 208 213 211 204 205 206 209 208 204 207 208 208 216 214 203 212 198 204 219 206 182 178 207 147 195 191 185 189 194 205 220 201 202 209 222 225 220 241 282 270 275
244 238 234 228 223 222 219 215 214 215 215 215 211 205 204 204 206 208 212 219 204 216 206 197 202 200 210 213 201 210 209 215 202 202 213 213 205 211 209 213 226 242 263 279 267 269 296
268 254 248 241 230 230 231 234 230 228 226 226 226 225 225 228 227 223 220 218 214 222 211 201 211 200 210 214 209 215 233 214 227 218 227 208 237 240 240 246 257 287 277 267 271 276 287
291 293 274 257 255 253 253 250 241 238 231 231 232 231 233 231 235 233 237 239 240 246 229 228 238 236 230 226 227 236 223 237 236 235 235 250 243 250 252 282 291 272 266 273 276 284 305
306 285 292 289 278 249 272 258 257 254 255 255 252 253 254 253 244 244 245 248 253 248 247 248 249 247 243 245 248 250 245 241 250 257 257 258 261 263 288 279 280 274 265 271 310 304 296
345 332 311 295 292 291 288 294 284 279 285 274 271 267 268 263 275 260 252 258 255 246 247 250 258 258 258 262 267 268 278 284 285 282 265 287 294 289 271 270 278 268 281 304 307 294 282
348 352 352 359 310 297 295 299 287 278 271 293 294 301 292 278 283 230 282 291 301 292 288 282 280 275 276 270 284 300 296 297 294 290 287 266 260 274 254 259 269 281 304 293 283 292 284
367 364 357 363 362 346 363 334 292 287 291 288 276 277 269 291 298 287 276 276 286 288 279 284 280 280 282 276 282 271 273 267 260 262 267 271 267 270 267 286 281 305 282 268 298 285 285
385 375 359 355 360 356 360 366 363 346 325 324 303 294 301 244 289 268 304 285 283 280 279 279 276 271 272 283 269 266 272 288 288 284 294 287 280 284 293 291 293 269 275 289 281 272 292
395 380 373 366 363 347 345 346 360 382 384 372 362 352 345 353 228 356 345 340 352 309 390 394 350 357 332 328 326 321 318 315 310 305 295 291 298 297 302 290 276 279 277 278 272 284 275
384 385 384 373 367 358 357 355 352 359 365 367 364 366 366 365 319 139 315 189 276 357 341 385 369 361 372 346 358 335 320 307 304 302 300 297 301 298 269 276 266 287 284 267 283 270 260
375 367 361 357 354 352 352 350 347 345 351 362 363 361 358 372 376 347 344 171 147 160 369 362 329 347 354 338 314 334 320 301 303 296 300 298 287 260 272 266 292 269 281 278 268 257 256
346 341 341 345 349 348 354 364 362 343 335 333 328 347 359 378 346 331 325 325 142 370 369 333 324 317 331 321 319 307 300 297 295 299 287 272 273 281 317 285 284 269 271 259 249 253 245
347 348 351 357 359 351 337 328 323 322 326 323 354 352 349 346 335 333 339 210 264 362 349 327 326 307 305 299 297 292 298 301 291 274 272 275 299 277 286 266 257 258 254 254 245 243 244
336 337 332 324 319 316 317 316 313 318 374 359 350 349 332 328 333 317 318 326 335 332 323 316 311 293 292 291 288 293 295 279 266 270 296 278 269 288 264 258 258 256 252 244 244 244 242

GFSGBSN_2pvu_pres_120.txt.gz
Presure
160 167 168 170 163 164 165 168 168 190 171 177 161 178 172 173 185 180 167 160 162 174 181 173 171 172 181 166 179 183 166 143 164 169 167 170 186 180 183 180 188 187 179 180 181 184 184
150 183 177 204 193 187 161 174 164 178 188 174 171 174 164 142 165 179 181 153 174 176 153 180 180 171 178 169 176 165 163 145 184 164 188 177 178 162 185 174 185 181 183 171 185 190 181
191 184 185 177 187 179 174 202 199 183 176 173 186 186 181 163 174 193 147 175 172 166 172 183 171 161 172 180 171 162 160 173 179 167 169 176 166 185 176 179 177 175 175 185 185 190 189
193 163 146 181 180 191 172 185 187 184 191 180 195 187 168 171 187 161 170 190 189 172 177 184 180 174 182 170 167 171 162 177 171 182 170 171 193 188 183 180 184 179 187 198 183 181 190
177 153 185 190 185 195 175 174 164 173 177 187 174 181 182 168 146 167 155 166 172 148 173 180 173 167 173 171 163 167 174 174 171 174 178 149 184 176 182 165 175 190 178 181 195 187 192
197 162 141 148 167 146 154 151 184 173 185 177 157 176 145 163 190 143 188 185 175 158 183 185 162 157 150 164 165 166 169 173 168 178 173 179 186 164 169 180 196 183 188 179 192 181 179
158 186 182 192 186 192 188 124 203 179 192 211 176 192 181 173 184 144 166 157 168 181 171 169 176 171 172 186 173 162 191 171 176 170 172 186 183 149 187 178 191 187 183 186 185 196 185
172 182 174 188 169 191 151 172 196 168 163 167 172 179 185 171 166 189 172 191 181 172 170 161 168 172 171 180 175 177 172 169 175 176 174 177 151 178 182 186 180 184 186 192 188 196 191
169 193 193 180 186 176 186 173 160 199 167 155 191 164 185 198 171 177 165 200 170 172 196 172 165 160 180 174 160 160 169 171 192 176 181 194 178 194 189 182 193 189 191 201 201 194 197
183 191 185 207 185 194 188 184 205 177 168 200 180 209 157 196 181 176 183 175 167 187 195 197 187 184 183 175 179 181 181 172 171 201 197 195 189 180 186 186 185 191 197 195 202 207 205
163 197 177 176 202 176 177 204 157 207 157 181 185 213 192 138 194 179 185 184 191 175 196 182 179 190 199 202 195 190 201 188 180 189 202 197 195 186 192 188 177 205 196 205 202 215 216
213 210 178 193 199 199 193 184 197 201 187 189 161 196 193 202 173 193 190 155 172 188 169 182 196 168 181 191 185 196 195 195 201 189 198 180 188 189 184 195 205 203 210 215 213 218 211
242 240 212 208 208 212 218 171 169 202 186 205 185 191 171 181 182 185 194 203 205 189 178 204 197 197 220 202 171 191 181 178 178 192 188 188 201 210 206 197 205 211 220 201 213 206 206
233 236 227 249 240 198 208 227 211 208 201 208 207 183 190 200 199 193 165 164 198 157 213 209 199 213 230 235 221 215 216 205 189 213 203 211 191 197 216 208 206 212 201 214 209 206 209
255 240 236 233 235 231 218 223 226 215 216 205 211 192 206 197 206 202 208 203 208 206 201 214 209 215 207 226 221 231 227 221 218 206 206 197 212 222 213 213 207 204 203 198 200 206 218
308 289 276 252 244 237 227 228 225 233 225 204 213 207 212 211 209 215 184 203 200 193 206 216 222 222 204 212 228 232 212 216 218 211 216 222 194 200 195 189 194 203 206 207 220 227 232
377 328 305 292 271 250 240 237 234 222 230 229 224 223 219 203 212 202 205 209 204 198 222 219 206 208 208 186 202 204 211 213 190 189 206 205 198 211 203 206 223 229 231 232 239 247 244
426 400 368 320 301 292 262 251 240 231 234 226 215 225 220 217 222 226 233 226 217 209 201 216 217 211 195 202 211 201 216 189 210 204 211 207 209 214 226 229 229 226 234 247 251 258 259
378 407 393 355 342 316 300 278 256 243 236 236 224 228 226 220 218 224 222 212 208 218 224 218 221 220 221 218 220 224 218 217 217 219 219 218 218 226 234 239 252 259 253 267 269 281 278
414 405 393 364 358 348 348 324 300 289 255 240 239 247 236 232 231 231 232 232 229 225 225 229 228 223 227 225 224 225 220 225 230 225 230 234 240 247 258 266 287 270 271 288 282 275 274
404 416 384 358 366 365 362 352 325 301 291 285 257 255 252 263 261 244 236 237 245 251 253 251 238 234 231 237 238 238 237 239 243 254 263 267 267 271 278 278 279 290 293 273 273 269 267
410 411 369 367 344 356 360 375 365 349 323 302 297 291 274 258 253 253 255 259 260 239 261 252 251 249 254 264 256 256 254 260 267 270 260 261 255 272 284 287 286 283 272 269 254 256 257
401 401 399 374 370 367 360 377 377 356 347 336 323 315 290 284 264 262 259 251 249 255 260 261 262 259 258 259 259 257 270 264 260 263 271 273 282 257 282 265 277 266 261 266 273 302 293
394 395 362 366 371 365 371 366 369 353 349 349 340 337 349 321 284 287 283 266 258 266 263 272 269 266 261 266 269 270 271 270 271 266 263 271 271 272 268 269 264 268 281 297 312 302 298
365 364 345 344 348 363 381 395 376 363 334 344 337 339 331 340 333 340 306 320 285 272 262 269 278 272 271 270 269 272 284 273 276 276 142 278 280 204 274 274 303 293 322 308 308 303 300
369 352 361 359 356 360 373 378 382 383 343 351 359 348 345 332 346 343 323 309 336 341 336 292 284 148 290 280 295 279 273 288 278 269 267 276 289 301 321 333 345 330 312 310 308 300 287
385 383 383 388 378 374 374 360 364 368 362 338 330 342 345 327 327 339 339 338 334 337 339 333 332 250 323 316 314 311 318 312 308 301 327 322 319 324 334 341 332 312 302 303 301 289 291
353 357 363 371 377 387 391 392 376 365 353 353 343 337 334 328 337 337 326 317 325 333 314 325 324 206 333 337 337 338 351 329 369 352 336 330 334 341 326 336 308 292 298 300 294 285 267
410 422 391 385 380 381 383 384 378 359 346 347 339 334 335 332 326 330 341 340 332 339 345 358 352 355 360 167 148 334 324 303 318 338 324 333 333 324 330 311 296 295 291 290 274 261 259

GFSGBSN_2pvu_pres_126.txt.gz
Presure
167 165 151 168 176 179 163 161 184 171 176 169 172 167 170 154 161 162 160 179 166 178 172 164 167 173 170 160 173 178 175 172 145 176 176 157 179 180 169 176 179 186 161 171 166 165 174
175 184 169 156 144 148 168 191 181 181 161 177 166 167 172 183 179 170 182 163 169 172 169 160 179 179 168 178 181 174 185 172 175 184 176 162 173 177 164 175 172 182 175 172 177 166 166
196 173 146 183 144 186 191 145 131 179 188 182 184 181 172 187 174 173 187 180 130 171 183 189 172 181 170 182 157 181 185 184 165 172 158 165 177 164 190 184 171 178 176 174 170 169 178
201 159 176 192 152 186 190 184 154 173 175 190 190 165 175 165 174 171 145 179 170 168 159 180 187 186 179 164 186 184 182 150 181 178 196 168 143 178 171 177 177 178 180 176 176 172 172
214 185 191 186 179 178 189 178 188 188 179 174 184 168 177 168 163 183 183 168 175 162 166 173 167 176 159 181 181 192 167 168 197 172 172 172 183 177 171 172 184 160 166 161 181 179 185
167 203 142 171 197 176 160 159 177 168 151 194 172 128 192 122 183 182 179 187 156 143 163 136 182 174 182 161 182 184 178 177 173 178 179 185 174 171 180 184 165 172 174 170 170 183 166
154 172 203 167 212 155 183 174 212 165 153 186 176 175 143 150 161 189 178 184 180 165 177 187 180 184 177 182 183 157 179 175 196 176 166 180 173 180 161 163 160 167 176 172 176 178 179
174 205 201 185 204 196 207 178 166 189 176 185 202 157 183 183 165 195 170 179 164 179 174 181 182 165 180 187 192 175 172 180 176 169 174 168 168 167 171 175 175 179 184 176 178 181 177
197 183 182 195 170 194 193 165 220 182 171 191 175 169 167 181 162 177 180 176 183 185 159 167 183 173 184 196 180 155 176 186 173 178 177 173 171 172 165 164 174 176 164 181 168 186 194
211 210 174 175 204 196 214 199 147 191 192 170 182 161 186 203 175 194 163 187 191 150 175 178 151 189 174 181 151 159 178 180 192 186 194 185 173 178 177 176 169 179 183 173 186 182 171
218 207 215 209 213 176 202 213 209 189 224 187 204 163 162 204 159 173 196 148 169 173 192 146 156 172 156 158 162 179 194 180 169 153 191 188 185 159 181 174 175 167 176 177 173 196 177
239 222 226 204 210 195 189 212 215 203 190 189 215 181 197 216 173 174 172 178 145 185 191 141 177 155 177 165 169 173 162 178 165 197 175 192 172 168 173 173 184 191 181 187 183 197 207
256 248 240 231 228 215 208 176 201 201 203 210 202 198 205 183 224 184 180 200 174 178 167 165 163 184 162 180 169 177 171 186 162 170 186 177 199 189 175 174 180 184 166 181 197 191 194
289 275 265 253 251 236 228 217 216 199 205 168 199 201 188 191 182 218 201 164 179 151 165 207 160 170 165 175 200 168 183 187 175 179 163 174 179 171 199 173 174 158 200 197 191 203 205
311 371 350 456 283 262 256 234 237 226 225 219 212 193 204 192 176 189 202 199 199 200 204 185 184 176 187 168 173 166 179 174 166 188 177 165 164 168 167 165 165 193 189 198 199 204 198
390 407 442 447 364 463 379 259 257 249 238 230 223 221 211 198 185 207 174 196 159 180 199 186 176 179 174 211 174 181 182 187 186 171 167 200 186 195 179 167 185 192 195 199 202 201 199
380 420 411 413 528 429 403 444 432 313 268 252 242 234 223 217 215 180 215 200 173 196 173 200 191 170 189 173 154 192 166 199 159 185 175 215 201 211 201 194 168 199 202 197 206 209 213
373 402 399 396 408 397 379 365 378 432 405 346 271 269 265 246 218 236 209 208 206 202 197 198 204 183 194 199 201 196 192 167 224 213 217 169 196 207 175 204 203 202 200 206 213 213 212
358 380 389 383 378 471 411 386 381 356 387 375 341 316 284 279 255 240 222 234 231 214 211 200 201 204 198 196 203 188 210 217 218 226 197 196 221 217 211 214 170 212 206 215 213 214 214
353 370 382 381 367 384 391 352 355 351 348 336 348 344 339 341 324 286 251 238 234 226 222 224 205 208 164 206 208 221 213 218 217 217 212 209 213 219 215 209 220 225 212 216 221 218 220
353 376 378 373 371 357 384 352 340 363 349 332 349 357 366 356 354 339 296 270 250 243 238 223 179 220 217 217 217 215 202 215 209 208 210 216 222 219 219 218 214 217 218 222 217 225 232
362 366 462 476 374 369 501 364 344 318 331 324 305 317 320 326 365 404 392 340 288 255 243 242 239 227 233 231 220 217 223 217 213 215 220 224 223 218 223 212 215 222 219 224 227 239 263
354 445 441 444 466 358 440 490 353 324 313 309 302 305 313 325 330 333 334 390 353 314 282 256 248 248 240 229 231 227 227 227 226 225 226 228 226 222 228 223 225 229 231 233 241 255 253
424 435 433 436 485 441 418 390 379 338 329 319 311 306 301 301 312 332 339 332 330 332 315 291 268 258 251 246 249 244 238 235 237 229 233 229 223 227 233 234 235 240 244 242 264 273 274
378 431 432 444 486 379 393 419 360 332 354 325 319 318 306 305 306 336 339 349 345 339 325 323 307 285 277 262 253 248 253 263 256 250 242 240 240 240 240 254 249 260 274 276 271 268 248
437 414 403 440 481 389 359 341 319 323 356 325 317 307 314 319 322 314 314 328 339 351 334 329 322 308 299 289 281 253 265 260 260 262 270 260 253 260 263 267 275 268 263 263 272 147 91
432 409 396 458 409 384 366 348 336 324 319 316 327 319 317 319 311 265 323 325 338 328 326 323 319 316 307 298 298 289 296 279 287 271 268 266 265 271 278 280 270 276 280 267 169 203 316
396 383 372 409 378 363 346 332 330 314 329 338 308 316 324 322 320 327 339 344 367 353 335 321 313 310 310 312 313 309 309 309 310 298 290 287 289 292 286 284 296 273 244 298 320 327 320
396 369 348 349 349 315 306 303 315 316 310 301 341 338 340 351 337 387 356 354 347 343 344 330 321 316 316 316 313 307 301 295 295 297 288 297 293 294 300 336 320 316 324 316 315 319 325

GFSGBSN_2pvu_pres_132.txt.gz
Presure
172 154 166 163 187 136 166 162 159 158 178 139 147 164 157 172 147 161 171 152 165 161 157 155 148 164 153 168 169 163 168 150 166 162 165 163 160 167 186 174 176 166 191 168 170 180 187
179 177 179 165 155 165 193 145 147 173 182 166 171 174 161 152 149 164 162 171 144 159 167 171 155 161 161 145 146 154 185 161 167 181 159 162 183 182 171 171 178 174 190 164 169 201 192
147 173 159 160 189 191 167 163 150 178 141 174 176 138 173 180 155 172 176 162 169 171 150 164 147 170 173 169 175 172 194 169 174 160 173 166 178 188 185 183 188 197 144 195 180 195 192
190 177 185 173 177 183 175 191 185 161 170 143 162 177 162 141 165 146 180 162 177 156 177 153 166 149 187 182 148 173 166 173 181 177 181 162 182 182 176 188 159 183 147 189 185 187 189
162 175 170 167 173 180 162 149 162 150 137 165 181 201 194 192 185 167 174 150 175 160 161 172 164 146 167 156 156 172 183 168 176 191 173 182 181 176 184 173 180 190 178 173 183 188 183
183 165 196 183 156 159 174 153 163 193 184 200 147 163 182 145 140 152 170 192 183 177 178 184 148 150 166 155 170 183 179 174 173 164 181 172 162 157 188 178 182 186 186 172 190 175 182
207 207 173 188 191 194 200 188 199 190 199 207 158 190 191 195 202 157 191 192 167 165 184 174 151 148 166 168 186 172 194 192 179 187 178 184 179 181 180 158 171 171 162 169 189 180 180
182 174 200 163 200 180 169 160 167 181 179 188 170 208 205 209 178 163 161 179 158 162 180 172 165 188 184 173 179 175 187 171 184 180 179 189 181 172 177 173 165 171 176 181 178 181 170
196 181 198 180 191 179 181 189 173 185 182 175 167 191 193 199 199 197 197 176 178 163 152 182 188 149 169 186 178 175 184 164 159 170 157 171 175 176 168 178 173 174 169 174 185 165 167
197 186 200 193 176 201 188 168 208 195 194 200 195 196 208 197 163 191 167 186 172 183 159 157 174 170 180 174 176 170 181 179 154 178 181 176 174 170 186 177 176 172 174 172 177 177 191
217 216 215 205 209 198 209 200 200 187 188 189 193 195 189 188 177 183 201 152 178 177 150 206 173 180 132 193 146 180 180 174 165 153 176 169 182 143 179 180 185 181 183 178 176 174 161
220 219 215 215 215 214 201 194 204 179 202 204 201 201 194 197 201 196 193 179 194 165 162 183 198 159 200 208 192 173 185 177 175 158 178 177 150 184 185 180 181 140 173 177 178 184 180
248 241 236 239 231 224 217 210 210 213 202 204 191 189 202 194 199 187 178 205 180 174 167 205 183 167 166 154 187 190 188 181 176 165 177 178 183 169 173 178 171 169 181 181 179 168 179
292 268 270 282 270 250 230 229 229 232 221 210 195 193 203 193 189 182 197 209 198 174 191 165 169 178 176 206 212 194 163 194 151 191 186 167 182 178 172 154 178 182 180 178 182 188 180
319 323 332 314 288 276 278 269 266 253 242 230 242 217 192 206 203 195 209 231 218 173 197 191 193 177 219 181 173 194 169 176 189 190 185 187 181 139 192 176 184 190 154 163 188 174 183
323 339 361 354 347 334 316 309 286 284 275 263 255 252 228 212 217 217 208 210 211 209 212 206 187 202 196 205 187 180 184 206 168 166 182 173 184 190 188 176 182 180 191 169 168 167 191
341 334 334 334 337 334 329 330 328 337 304 310 283 265 259 254 235 209 192 202 220 92 168 187 224 204 190 213 200 201 177 194 193 178 187 180 170 170 195 188 173 170 166 176 187 191 170
324 325 323 322 325 324 325 328 323 322 327 327 288 299 282 260 252 253 247 235 217 214 214 217 221 219 182 196 200 185 192 190 173 178 176 186 175 168 183 179 168 174 174 184 165 170 182
329 318 312 330 323 327 325 327 339 342 344 354 354 329 320 316 284 266 282 252 247 239 229 215 207 211 209 195 202 179 200 182 209 192 182 182 175 175 183 185 182 177 180 185 186 174 170
321 312 331 318 325 332 329 337 344 369 390 391 403 408 402 356 314 309 296 337 292 266 248 238 227 219 211 214 224 214 239 202 188 200 210 189 203 180 200 175 176 186 180 178 183 181 175
324 325 322 320 326 332 337 354 369 369 366 373 385 396 390 377 367 340 353 329 302 308 302 289 285 253 226 220 210 209 211 209 213 212 177 180 214 210 197 202 178 204 207 175 174 176 202
319 318 321 326 328 346 353 358 353 347 347 362 367 385 363 352 347 345 341 346 358 346 337 346 295 285 300 270 236 223 217 210 216 210 218 220 215 215 195 209 202 202 209 209 206 205 111
318 322 329 341 337 338 336 351 338 334 339 366 365 408 432 346 331 332 323 336 319 320 326 335 336 343 341 344 296 287 268 249 243 241 226 227 229 218 220 205 202 219 208 202 204 207 208
335 338 333 328 329 335 345 344 338 342 364 354 356 381 399 337 323 322 320 321 312 325 311 321 323 330 354 359 348 333 331 339 349 342 299 264 244 250 234 219 215 215 217 213 215 213 212
329 328 328 336 348 342 337 342 362 348 352 361 369 399 392 337 321 317 321 304 324 311 311 314 317 320 281 330 334 357 340 343 342 331 319 310 300 258 253 248 252 248 231 230 232 231 133
329 328 327 331 339 362 342 341 350 381 407 433 394 391 414 326 326 343 314 307 299 298 302 310 310 307 295 311 324 331 344 349 324 320 315 312 313 323 319 301 275 266 249 250 249 253 233
327 333 330 327 329 338 360 388 396 409 478 461 379 364 325 317 307 304 331 304 301 293 285 296 312 303 304 222 351 339 341 329 316 314 318 310 302 294 294 295 308 294 289 291 289 293 266
319 322 334 355 373 377 379 415 449 465 461 474 381 335 332 326 311 298 308 304 298 290 302 282 288 275 299 247 224 274 324 316 309 305 306 300 297 300 298 290 288 278 289 280 279 285 289
349 355 363 366 411 439 497 420 428 395 406 343 346 313 304 291 293 300 296 290 286 290 288 295 288 291 286 277 335 238 294 224 318 316 302 297 295 289 288 289 291 300 298 291 293 296 296

GFSGBSN_2pvu_pres_135.txt.gz
Presure
174 181 154 154 171 164 132 171 144 155 180 160 157 146 171 114 154 173 171 153 159 170 153 137 163 154 160 164 155 152 152 147 168 160 163 156 152 170 167 170 171 159 161 177 187 188 189
172 139 168 164 145 167 186 155 143 167 138 164 187 157 167 177 143 144 159 174 145 153 165 164 173 157 151 143 161 149 157 169 155 162 169 169 171 154 159 176 165 185 185 187 181 185 178
182 176 165 172 174 178 175 180 152 155 163 174 154 144 161 171 162 156 163 185 146 159 175 153 170 155 144 163 150 142 168 166 151 156 149 164 155 170 186 177 192 144 173 162 184 190 191
182 157 191 180 177 166 151 164 187 163 165 166 187 130 182 131 157 168 194 145 163 183 141 181 164 170 134 152 167 146 155 142 173 165 172 155 156 178 149 169 170 160 166 170 189 161 186
149 174 189 177 181 186 178 187 187 183 179 150 171 168 176 161 186 186 175 180 173 150 176 176 161 170 169 164 146 167 167 178 168 168 176 169 171 158 176 174 167 181 186 194 187 184 165
166 158 196 190 204 169 175 158 192 176 179 177 183 179 166 182 191 178 183 165 166 179 181 149 180 145 171 175 155 172 167 156 161 151 188 166 166 182 163 173 183 165 185 183 179 186 183
204 146 172 179 191 200 187 186 177 172 160 147 187 188 171 176 169 181 173 192 169 161 120 162 159 147 169 195 129 143 152 159 183 185 185 196 171 183 181 174 178 195 176 167 170 166 177
189 166 208 169 168 170 201 170 208 167 159 177 181 183 172 175 200 187 184 150 161 151 151 182 155 172 142 180 186 192 183 171 186 166 165 179 186 169 148 185 192 187 164 186 175 184 177
190 191 183 208 163 176 179 194 186 181 170 172 193 189 184 156 185 181 196 170 196 167 189 193 165 176 165 190 192 165 171 176 183 184 183 142 147 183 158 177 186 180 184 184 191 183 179
179 199 192 191 190 167 203 185 215 185 192 190 190 167 177 179 187 192 173 191 165 214 212 143 178 170 184 174 188 189 185 182 178 171 181 176 176 169 174 177 170 171 179 176 163 179 172
207 206 200 194 194 185 190 192 196 181 209 185 194 197 209 197 168 167 163 183 169 193 185 210 196 199 198 193 196 192 127 158 185 172 177 183 181 178 169 169 177 171 175 179 176 178 152
215 214 212 206 201 200 198 187 193 196 188 190 175 164 183 180 205 194 172 187 198 206 193 200 178 167 181 175 193 172 192 185 166 189 184 184 180 166 181 166 175 177 182 184 177 165 183
251 240 232 229 225 223 217 214 212 205 203 204 200 209 187 201 174 190 194 179 170 193 191 194 199 203 206 185 188 176 175 193 189 177 198 184 180 165 174 183 180 183 180 184 182 178 191
241 250 243 261 235 231 219 224 216 221 225 219 205 205 204 194 189 202 199 182 203 199 188 198 177 183 198 192 177 173 182 190 140 184 178 185 186 188 183 204 192 187 186 170 180 181 156
261 290 292 246 227 242 256 258 234 230 232 231 217 221 229 210 195 200 191 185 188 195 199 186 182 205 194 177 202 196 185 195 186 185 155 192 181 171 180 195 189 181 185 183 182 193 141
287 294 301 284 297 289 296 268 237 246 267 278 264 251 237 226 219 220 210 222 214 202 182 197 196 205 214 187 185 207 227 191 186 193 177 173 186 169 211 174 198 192 188 184 188 166 193
293 292 287 290 282 295 310 309 310 303 299 271 289 301 288 271 271 261 246 218 226 212 211 204 199 200 204 199 207 218 211 197 177 170 187 169 175 172 140 179 204 197 182 183 183 187 177
295 294 290 297 303 319 322 324 335 380 376 359 369 338 296 316 306 288 276 272 271 182 72 230 222 217 212 209 200 197 224 227 142 181 208 176 201 181 177 186 179 174 188 194 199 192 203
279 296 299 303 308 313 317 355 352 354 346 349 346 342 338 335 336 335 338 329 303 291 295 273 260 253 228 225 210 220 218 215 223 224 218 220 194 229 187 180 200 188 186 173 178 186 185
306 303 310 324 353 346 348 339 338 333 337 337 335 335 334 334 334 328 321 322 325 327 327 306 290 265 246 221 219 213 225 208 214 209 213 208 218 221 236 216 179 207 185 188 178 170 180
329 351 345 336 317 316 325 334 313 334 341 322 331 333 318 322 328 327 324 324 321 329 336 340 324 308 311 252 238 211 216 218 222 213 231 211 226 233 126 223 214 207 216 192 200 223 216
329 331 331 328 327 335 334 325 324 324 324 332 331 335 341 347 348 376 390 403 392 330 323 323 319 315 303 288 265 241 232 223 221 211 205 216 205 207 218 225 217 188 218 186 228 214 196
325 325 322 326 332 330 325 325 326 325 326 330 330 343 374 385 377 373 382 380 393 367 347 352 334 330 318 320 306 291 288 272 250 233 228 210 212 216 214 221 219 216 224 224 222 160 162
332 329 329 327 324 324 323 322 322 324 333 346 351 347 362 364 352 356 383 431 369 350 336 329 339 331 338 329 341 345 333 302 274 272 290 259 233 233 238 231 226 232 217 222 102 231 166
322 323 323 323 324 322 322 327 333 343 347 349 343 345 351 350 339 343 376 373 370 349 326 317 317 317 325 313 327 326 333 337 342 334 322 295 279 273 268 259 259 267 240 226 225 230 230
324 336 338 337 337 341 341 338 336 335 338 351 355 342 339 345 376 350 367 357 356 329 310 314 308 311 302 296 296 304 331 347 330 365 344 339 352 340 336 279 293 315 315 311 282 90 314
332 330 327 325 323 326 332 333 331 337 346 358 360 348 352 364 339 349 365 336 321 314 306 292 294 295 149 292 313 320 325 327 329 336 233 311 314 320 323 323 326 329 322 314 314 321 306
321 325 329 328 327 329 327 326 327 331 337 361 390 396 425 436 406 353 342 308 321 334 306 289 286 283 293 283 269 265 299 316 338 295 171 360 350 343 320 316 321 301 296 302 311 314 315
321 318 316 320 326 336 373 385 385 379 384 440 459 467 515 408 350 331 314 301 286 288 315 285 287 281 286 295 303 320 184 197 316 278 290 269 309 211 318 317 329 319 319 316 304 296 292

GFSGBSN_2pvu_pres_138.txt.gz
Presure
124 160 169 185 154 164 161 172 157 170 143 155 156 159 147 136 152 150 156 140 160 164 156 154 159 141 139 157 157 152 148 152 142 144 138 174 169 160 140 156 160 155 174 163 164 160 162
191 177 168 181 173 174 163 159 154 168 163 160 163 167 155 159 182 144 150 163 151 156 151 154 158 171 148 161 135 163 168 164 149 156 171 169 150 149 125 153 153 158 159 168 165 163 163
181 166 154 193 182 186 179 172 182 171 167 169 170 174 171 162 172 182 176 147 163 160 167 172 162 173 148 164 143 145 164 135 146 177 166 166 151 154 154 159 166 173 163 155 152 177 180
154 161 192 173 186 169 176 150 182 161 170 181 175 182 182 165 174 160 168 164 142 174 154 169 175 173 138 180 174 163 169 160 142 165 162 157 180 170 159 165 163 157 169 163 181 191 181
161 204 162 193 154 159 189 180 172 182 178 167 183 173 160 179 164 175 185 171 167 155 149 153 166 186 164 162 176 165 176 160 163 159 149 156 145 171 169 145 171 167 160 171 163 153 183
212 199 199 197 185 188 193 157 190 196 192 144 179 164 175 163 172 183 155 190 175 159 171 178 168 172 176 173 174 152 176 178 162 174 177 177 172 149 155 170 161 164 198 182 170 184 169
214 155 194 191 199 173 195 195 192 168 134 158 163 166 182 188 173 184 147 185 157 187 188 173 160 167 164 159 167 178 178 159 171 185 168 182 161 172 130 200 185 161 176 179 185 176 197
202 177 188 214 202 185 192 200 173 155 170 144 158 171 179 185 177 189 163 166 135 167 148 162 179 181 166 167 179 180 153 170 168 161 173 172 183 172 187 186 193 182 182 174 164 189 189
209 194 168 174 178 184 152 190 196 178 168 182 177 197 183 172 160 168 170 181 200 169 171 162 169 168 180 179 169 157 166 173 185 177 180 176 167 165 182 181 189 186 179 181 180 186 185
212 198 185 202 160 206 196 185 199 172 181 166 182 183 170 164 185 182 184 196 163 189 174 170 149 176 190 169 172 163 179 185 177 159 187 145 193 179 176 171 169 183 184 182 155 182 182
225 214 216 214 205 213 194 190 202 181 188 203 206 190 204 194 170 179 185 187 195 158 190 179 176 198 206 193 177 159 172 168 186 183 164 169 183 192 180 170 177 183 183 175 176 170 169
243 225 222 207 213 211 208 195 188 161 193 215 197 200 192 207 179 172 176 193 194 188 195 200 180 151 160 186 199 196 155 199 189 202 196 191 189 173 182 187 188 194 187 177 181 168 181
246 266 225 234 224 208 213 215 208 200 200 186 191 189 194 192 204 208 187 190 187 196 201 196 185 195 199 187 181 183 203 180 184 205 186 182 188 189 192 190 164 182 175 181 179 180 183
258 216 239 268 211 236 217 225 221 214 215 204 196 202 208 200 201 202 183 191 197 170 188 202 176 185 193 193 185 195 201 202 189 198 203 184 191 172 170 185 186 191 184 190 189 183 185
273 225 257 236 218 231 253 252 242 229 227 217 212 207 210 214 206 211 199 208 206 196 183 200 187 188 198 188 191 177 196 196 205 179 192 183 171 182 191 162 181 175 177 188 185 182 187
264 270 276 257 262 242 230 230 238 267 250 238 231 218 218 217 218 211 213 218 217 215 213 205 199 201 197 198 204 196 186 197 174 185 187 186 208 191 198 190 187 187 178 178 178 191 187
302 304 297 276 267 268 254 268 230 234 251 240 247 251 262 238 225 222 248 234 235 226 233 226 220 207 204 200 196 199 203 196 188 202 194 191 210 196 183 184 183 174 176 186 188 191 182
294 290 290 291 289 270 294 283 253 248 287 244 211 240 228 233 253 249 238 275 287 265 263 215 235 233 230 224 216 215 203 197 200 194 198 208 213 204 192 212 185 186 175 191 179 185 187
289 294 301 301 282 285 290 297 285 282 271 287 292 292 290 262 299 290 267 294 301 284 267 281 113 78 259 232 253 253 224 215 205 200 193 198 201 208 209 213 213 190 182 187 201 186 176
286 292 288 281 290 291 292 295 293 293 297 298 293 305 309 314 331 336 366 369 367 373 242 364 339 325 343 353 343 332 301 283 240 211 204 196 195 194 205 208 212 232 217 228 202 181 227
292 292 293 288 293 293 294 297 303 301 304 302 316 327 322 364 366 358 353 350 346 348 343 338 338 343 339 345 344 347 356 313 292 274 251 226 224 227 210 209 200 214 217 235 228 230 221
292 302 288 285 298 298 304 303 313 308 312 332 366 353 340 332 344 347 344 344 336 333 334 335 334 331 328 328 321 237 333 330 317 320 288 257 249 237 226 243 216 211 223 221 227 211 231
298 297 302 309 307 307 319 353 350 350 351 343 350 335 345 350 340 340 333 330 328 328 331 328 322 326 325 322 316 317 162 327 329 321 309 284 267 258 245 241 220 222 223 163 219 224 223
317 338 338 343 347 342 341 343 338 337 336 336 336 344 337 335 334 333 334 330 329 329 341 342 339 346 350 310 308 320 312 315 313 315 323 312 279 264 255 246 233 232 236 226 219 235 209
327 326 326 326 332 329 327 325 325 336 340 339 340 340 337 342 339 330 326 341 364 377 381 384 383 368 339 330 316 318 323 332 332 328 320 307 304 302 294 252 250 245 234 236 242 237 229
323 333 332 331 328 326 327 327 328 329 332 334 332 334 338 344 343 338 350 350 364 354 360 377 378 362 322 329 314 328 322 326 328 329 318 320 325 337 307 277 279 263 251 253 243 242 239
318 317 316 317 317 318 319 322 326 330 332 336 338 344 358 365 344 335 350 346 354 340 354 343 376 330 303 316 306 284 294 313 323 330 328 315 315 319 336 334 331 313 280 276 277 263 279
315 325 337 338 340 338 333 330 330 332 336 341 342 342 347 355 343 343 346 353 352 358 381 392 328 313 303 303 305 291 287 288 292 301 301 208 331 341 323 291 334 306 296 293 289 286 284
331 324 316 312 316 322 327 332 331 335 341 347 347 337 341 356 325 344 355 349 339 341 324 320 325 319 294 284 288 289 301 307 301 300 302 286 159 340 308 322 326 331 345 325 307 308 311